Regional Weather Roundup
Issued by NWS

Home | Current Version | Previous Version | Text Only | Print | Product List | Glossary On
Versions: 1 2 3 4 5 6 7 8 9 10 11 12 13 14 15 16 17 18 19 20 21 22 23 24 25 26 27 28 29 30 31 32 33 34 35 36 37 38 39 40 41 42 43 44 45 46 47 48 49 50
000
ASUS45 KBOI 181810
RWRID

IDAHO REGIONAL WEATHER ROUNDUP
NATIONAL WEATHER SERVICE BOISE ID
1100 AM MST MON DEC 18 2017

NOTE: "FAIR" INDICATES FEW OR NO CLOUDS BELOW 12000 FEET
WITH NO SIGNIFICANT WEATHER AND/OR OBSTRUCTIONS TO VISIBILITY

IDZ012-014-181900-
SOUTHWEST IDAHO


CITY           SKY/WX    TMP DP  RH WIND       PRES   REMARKS
BOISE          MOSUNNY   36  26  67 CALM      30.23R
CALDWELL       MOSUNNY   36  25  64 S3        30.27R
MOUNTAIN HOME  PTSUNNY   38  27  65 E13       30.22R WCI  30
$$

IDZ016-017-181900-
SOUTHCENTRAL IDAHO


CITY           SKY/WX    TMP DP  RH WIND       PRES   REMARKS
BURLEY         PTSUNNY   39  21  48 S7        30.20S WCI  34
JEROME         CLOUDY    37  23  56 S8        30.22R WCI  31
TWIN FALLS     PTSUNNY   38  23  55 E5        30.21S WCI  34
$$

IDZ019>023-181900-
SOUTHEAST IDAHO


CITY           SKY/WX    TMP DP  RH WIND       PRES   REMARKS
IDAHO FALLS    CLOUDY    28  23  81 CALM      30.21S
POCATELLO      CLOUDY    35  27  72 S15       30.21R WCI  25
REXBURG        CLOUDY    27  21  78 CALM      30.20S
$$

IDZ006-010-011-018-031-032-181900-
CENTRAL IDAHO MOUNTAINS


CITY           SKY/WX    TMP DP  RH WIND       PRES   REMARKS
MCCALL         CLOUDY    30  27  88 NE3       30.13R
HAILEY         PTSUNNY   27  19  74 CALM      30.19S
STANLEY          N/A     31  25  78 S3        30.14R
SALMON         CLOUDY    25  19  78 NW3       30.08S
CHALLIS        PTSUNNY   27  16  63 CALM      30.08R
$$

IDZ002-004-006-007-026-181900-
NORTHERN IDAHO


CITY           SKY/WX    TMP DP  RH WIND       PRES   REMARKS
LEWISTON       CLOUDY    48  34  58 SW12      30.02R
LOWELL           N/A     33  32  96 N3        30.13R
COEUR D`ALENE  CLOUDY    38  35  89 S6        29.97R WCI  33
MULLAN PASS    SNOW      30  27  88 VRB6      29.87R VSB 1/4 WCI  24
$$



USA.gov is the U.S. government's official web portal to all federal, state and local government web resources and services.